When you browse on this site, cookies collect data to enhance your experience and personalize the content and advertising you see.
Visit our Privacy Policy to learn more. By continuing to use the site, you agree to this use of cookies and data.
  • In Germany
  • List of Countries
  • For 7 days
  • Water Temperature
  • Satellite Maps
  • Weather Map
  • Weather Widgets
  • user-avatar
    Login

    Hourly Weather Michurina

    Today, 19 November, Monday

    Time Temperature Precipitation Wind Pressure Humidity
    00:00 +1°C° 0 mm 2 mps 766 mmHg 59%
    01:00 -1°C° 0 mm 2 mps 766 mmHg 59%
    02:00 -1°C° 0 mm 2 mps 766 mmHg 59%
    03:00 -1°C° 0 mm 3 mps 766 mmHg 61%
    04:00 -1°C° 0 mm 3 mps 766 mmHg 64%
    05:00 -2°C° 0 mm 3 mps 766 mmHg 66%
    06:00 -1°C° 0 mm 3 mps 766 mmHg 68%
    07:00 -2°C° 0 mm 4 mps 766 mmHg 69%
    08:00 -2°C° 0 mm 4 mps 766 mmHg 71%
    09:00 -1°C° 0 mm 4 mps 766 mmHg 70%
    10:00 0°C° 0 mm 5 mps 766 mmHg 69%
    11:00 +1°C° 0 mm 5 mps 766 mmHg 69%
    12:00 +1°C° 0.1 mm 5 mps 765 mmHg 69%
    13:00 +1°C° 0.1 mm 5 mps 765 mmHg 70%
    14:00 +2°C° 0.1 mm 6 mps 765 mmHg 71%
    15:00 +1°C° 0.5 mm 6 mps 764 mmHg 74%
    16:00 +1°C° 0.5 mm 6 mps 763 mmHg 77%
    17:00 0°C° 0.5 mm 7 mps 763 mmHg 80%
    18:00 0°C° 0.7 mm 7 mps 763 mmHg 82%
    19:00 0°C° 0.7 mm 8 mps 762 mmHg 84%
    20:00 0°C° 0.7 mm 8 mps 762 mmHg 86%
    21:00 +1°C° 0.9 mm 8 mps 761 mmHg 87%
    22:00 +1°C° 0.9 mm 8 mps 761 mmHg 87%
    23:00 +1°C° 0.9 mm 8 mps 761 mmHg 88%

    Tomorrow, 20 November, Tuesday

    Time Temperature Precipitation Wind Pressure Humidity
    00:00 +1°C° 1.2 mm 8 mps 760 mmHg 89%
    01:00 +1°C° 1.2 mm 8 mps 760 mmHg 89%
    02:00 +1°C° 1.2 mm 8 mps 760 mmHg 90%
    03:00 +1°C° 0.6 mm 8 mps 759 mmHg 90%
    04:00 +2°C° 0.6 mm 7 mps 759 mmHg 91%
    05:00 +2°C° 0.6 mm 7 mps 759 mmHg 91%
    06:00 +2°C° 0.5 mm 7 mps 759 mmHg 91%
    07:00 +2°C° 0.5 mm 7 mps 760 mmHg 90%
    08:00 0°C° 0.5 mm 7 mps 760 mmHg 90%
    09:00 0°C° 0.3 mm 7 mps 760 mmHg 88%
    10:00 0°C° 0.3 mm 7 mps 761 mmHg 87%
    11:00 0°C° 0.3 mm 7 mps 761 mmHg 85%
    12:00 0°C° 0 mm 7 mps 762 mmHg 85%
    13:00 +1°C° 0 mm 6 mps 762 mmHg 84%
    14:00 +1°C° 0 mm 6 mps 762 mmHg 84%
    15:00 +1°C° 0 mm 6 mps 763 mmHg 84%
    16:00 -1°C° 0 mm 6 mps 763 mmHg 85%
    17:00 -1°C° 0 mm 6 mps 764 mmHg 85%
    18:00 0°C° 0 mm 5 mps 764 mmHg 84%
    19:00 0°C° 0 mm 5 mps 765 mmHg 83%
    20:00 0°C° 0 mm 5 mps 765 mmHg 82%
    21:00 0°C° 0 mm 5 mps 765 mmHg 83%
    22:00 -1°C° 0 mm 5 mps 765 mmHg 83%
    23:00 -1°C° 0 mm 5 mps 765 mmHg 83%

    Day after tomorrow, 21 November, Wednesday

    Time Temperature Precipitation Wind Pressure Humidity
    00:00 -1°C° 0 mm 5 mps 765 mmHg 83%
    01:00 -2°C° 0 mm 4 mps 765 mmHg 83%
    02:00 -2°C° 0 mm 4 mps 765 mmHg 83%
    03:00 -2°C° 0 mm 4 mps 765 mmHg 82%
    04:00 -2°C° 0 mm 5 mps 765 mmHg 82%
    05:00 -4°C° 0 mm 5 mps 765 mmHg 82%
    06:00 -4°C° 0 mm 5 mps 765 mmHg 82%
    07:00 -4°C° 0 mm 5 mps 765 mmHg 82%
    08:00 -4°C° 0 mm 5 mps 765 mmHg 81%
    09:00 -2°C° 0 mm 5 mps 765 mmHg 78%
    10:00 -1°C° 0 mm 5 mps 765 mmHg 74%
    11:00 0°C° 0 mm 5 mps 765 mmHg 71%
    12:00 +1°C° 0 mm 5 mps 765 mmHg 70%
    13:00 +1°C° 0 mm 5 mps 765 mmHg 69%
    14:00 +1°C° 0 mm 5 mps 764 mmHg 69%
    15:00 0°C° 0 mm 5 mps 764 mmHg 73%
    16:00 -1°C° 0 mm 5 mps 765 mmHg 77%
    17:00 -2°C° 0 mm 5 mps 765 mmHg 81%
    18:00 -2°C° 0 mm 5 mps 765 mmHg 82%
    19:00 -2°C° 0 mm 5 mps 765 mmHg 83%
    20:00 -4°C° 0 mm 5 mps 765 mmHg 83%
    21:00 -4°C° 0 mm 5 mps 765 mmHg 83%
    22:00 -4°C° 0 mm 5 mps 765 mmHg 83%
    23:00 -4°C° 0 mm 5 mps 765 mmHg 83%

    22 November, Thursday

    Time Temperature Precipitation Wind Pressure Humidity
    00:00 -5°C° 0 mm 5 mps 765 mmHg 83%
    01:00 -4°C° 0 mm 4 mps 765 mmHg 82%
    02:00 -4°C° 0 mm 4 mps 765 mmHg 82%
    03:00 -4°C° 0 mm 4 mps 765 mmHg 82%
    04:00 -4°C° 0 mm 4 mps 766 mmHg 81%
    05:00 -4°C° 0 mm 4 mps 766 mmHg 81%
    06:00 -4°C° 0 mm 4 mps 766 mmHg 80%
    07:00 -4°C° 0 mm 4 mps 766 mmHg 79%
    08:00 -4°C° 0 mm 4 mps 766 mmHg 78%
    09:00 -3°C° 0 mm 4 mps 766 mmHg 75%
    10:00 -2°C° 0 mm 4 mps 766 mmHg 71%
    11:00 -1°C° 0 mm 4 mps 766 mmHg 67%
    12:00 -1°C° 0 mm 4 mps 766 mmHg 67%
    13:00 -1°C° 0 mm 5 mps 766 mmHg 68%
    14:00 -1°C° 0 mm 5 mps 766 mmHg 68%
    15:00 -2°C° 0 mm 5 mps 766 mmHg 74%
    16:00 -3°C° 0 mm 4 mps 766 mmHg 79%
    17:00 -4°C° 0 mm 4 mps 766 mmHg 85%
    18:00 -4°C° 0 mm 4 mps 767 mmHg 85%
    19:00 -4°C° 0 mm 4 mps 767 mmHg 85%
    20:00 -4°C° 0 mm 4 mps 767 mmHg 85%
    21:00 -4°C° 0 mm 4 mps 767 mmHg 83%
    22:00 -4°C° 0 mm 4 mps 768 mmHg 82%
    23:00 -4°C° 0 mm 4 mps 768 mmHg 80%

    23 November, Friday

    Time Temperature Precipitation Wind Pressure Humidity
    00:00 -4°C° 0 mm 4 mps 768 mmHg 80%
    01:00 -4°C° 0 mm 4 mps 768 mmHg 81%
    02:00 -4°C° 0 mm 4 mps 768 mmHg 81%
    03:00 -5°C° 0 mm 4 mps 768 mmHg 82%
    04:00 -5°C° 0 mm 4 mps 768 mmHg 84%
    05:00 -5°C° 0 mm 4 mps 769 mmHg 85%
    06:00 -5°C° 0 mm 4 mps 769 mmHg 85%
    07:00 -5°C° 0 mm 4 mps 770 mmHg 86%
    08:00 -5°C° 0 mm 4 mps 770 mmHg 86%
    09:00 -4°C° 0 mm 4 mps 770 mmHg 81%
    10:00 -3°C° 0 mm 4 mps 771 mmHg 77%
    11:00 -2°C° 0 mm 4 mps 771 mmHg 73%
    12:00 -1°C° 0 mm 4 mps 771 mmHg 72%
    13:00 -1°C° 0 mm 4 mps 771 mmHg 72%
    14:00 -1°C° 0 mm 4 mps 771 mmHg 71%
    15:00 -2°C° 0 mm 4 mps 771 mmHg 76%
    16:00 -1°C° 0 mm 3 mps 772 mmHg 82%
    17:00 -2°C° 0 mm 3 mps 772 mmHg 87%
    18:00 -4°C° 0 mm 3 mps 772 mmHg 89%
    19:00 -4°C° 0 mm 3 mps 772 mmHg 90%
    20:00 -4°C° 0 mm 3 mps 773 mmHg 91%
    21:00 -4°C° 0 mm 3 mps 773 mmHg 90%
    22:00 -4°C° 0 mm 3 mps 773 mmHg 90%
    23:00 -3°C° 0 mm 2 mps 773 mmHg 90%

    24 November, Saturday

    Time Temperature Precipitation Wind Pressure Humidity
    00:00 -3°C° 0 mm 2 mps 773 mmHg 89%
    01:00 -3°C° 0 mm 2 mps 772 mmHg 89%
    02:00 -3°C° 0 mm 2 mps 772 mmHg 88%
    03:00 -4°C° 0 mm 2 mps 772 mmHg 87%
    04:00 -2°C° 0 mm 1 mps 772 mmHg 86%
    05:00 -2°C° 0 mm 1 mps 772 mmHg 86%
    06:00 -1°C° 0 mm 1 mps 772 mmHg 84%
    07:00 -1°C° 0 mm 1 mps 772 mmHg 82%
    08:00 -1°C° 0 mm 1 mps 772 mmHg 81%
    09:00 0°C° 0 mm 1 mps 772 mmHg 74%
    10:00 +1°C° 0 mm 1 mps 771 mmHg 67%
    11:00 +3°C° 0 mm 1 mps 771 mmHg 60%
    12:00 +3°C° 0 mm 1 mps 771 mmHg 58%
    13:00 +3°C° 0 mm 1 mps 770 mmHg 55%
    14:00 +4°C° 0 mm 1 mps 770 mmHg 53%
    15:00 +3°C° 0 mm 1 mps 770 mmHg 57%
    16:00 +2°C° 0 mm 1 mps 770 mmHg 61%
    17:00 -1°C° 0 mm 0 mps 769 mmHg 65%
    18:00 -1°C° 0 mm 0 mps 769 mmHg 66%
    19:00 -1°C° 0 mm 0 mps 769 mmHg 67%
    20:00 -1°C° 0 mm 0 mps 769 mmHg 68%
    21:00 -1°C° 0 mm 0 mps 769 mmHg 68%
    22:00 -1°C° 0 mm 0 mps 769 mmHg 69%
    23:00 -2°C° 0 mm 0 mps 769 mmHg 70%
    Show more